Terug naar catalogus

CZ-4 DEB

ActiefPO
NORAD 26123·DEBRIS·🇨🇳 China

Gelanceerd Oct 14, 1999 vanaf Taiyuan Satellite Launch Center

Loading…

Volgende Passages (komende 24 uur)

TLE

VersSource: Space-Track

Epoch: Sep 14, 2026, 01:03 UTC

1 26123U 99057K   26257.04416786  .00001712  00000-0  30325-3 0  9999
2 26123  98.6631 274.6629 0053226 352.6928   7.3493 14.67864480403548

Volg CZ-4 DEB in realtime met AllMySat

Download on the App Store